www.pogodaiklimat.ru

Погода и климат >> Архив погоды >> Россия >> Хабаровский край >> Георгиевка


ПОГОДА в Георгиевке

  • Прогноз погоды в Георгиевке
  • Монитор погоды в Георгиевке

АРХИВ ПОГОДЫ в Георгиевке

Время (UTC), дата Ветер
(напр.,м/с)
 
Видим.   Явления Облачность Т
(С)
Тd
(С)
f
(%)
Тe
(С)
Тes
(С)
Комфортность P
(гПа)
Po
(гПа)
Тmin
(С)
Tmax
(С)
R
(мм)
R24
(мм)
S
(см)
09 10.07 ЮЗ 2 20 км 6/3 600 м
[Cu med, cong Ci fib]
+27.2 +21.2 70 +34 +35 очень
душно
1011.9 1004.0 +28.9
12 10.07 штиль 0 10 км 7 баллов +21.3 +19.9 92 +26 +26 душно 1013.4 1005.3
15 10.07 штиль 0 10 км 6/0
[Ci sp]
+19.0 +18.7 98 +21 +21 комфорт 1013.5 1005.3
18 10.07 штиль 0 10 км 4/0
[Ci fib]
+17.7 +17.4 98 +18 +18 1012.2 1004.0
21 10.07 штиль 0 20 км 8/0
[Ci]
+20.0 +19.6 98 +23 +25 комфорт 1011.8 1003.6 +16.7
00 11.07 ЮЗ 1 20 км 6/0
[Ac trans]
+25.2 +18.4 66 +30 +35 душно 1012.0 1004.0
03 11.07 ЮЗ 2 20 км 7 баллов +27.3 +18.6 59 +32 +38 очень
душно
1010.6 1002.7
06 11.07 З 2 20 км 9/3
[Cb calv Ci ing]
+27.4 +18.9 60 +33 +34 очень
душно
1009.2 1001.3
09 11.07 З 1 20 км 9/0
[As trans Cs]
+25.8 +21.0 75 +32 +33 очень
душно
1008.0 1000.0 +28.7
12 11.07 штиль 0 10 км 6/0
[As trans Cs]
+21.5 +20.7 95 +27 +27 душно 1008.1 1000.0
15 11.07 штиль 0 10 км ясно +18.7 +18.4 98 +20 +20 1006.8 998.7
18 11.07 штиль 0 10 км ясно +17.3 +17.0 98 +17 +17 1006.9 998.7
21 11.07 В 1 20 км 5/0
[Ci ing]
+18.3 +17.9 98 +20 +22 1005.3 997.2 +17.3
00 12.07 СВ 2 20 км 2 балла +24.6 +19.4 73 +30 +39 очень
душно
1005.3 997.3
03 12.07 В 1 20 км 3/3 600 м
[Cu hum]
+28.0 +17.2 52 +32 +49 душно 1003.9 996.0
06 12.07 С 3 20 км 3/3
[Cu hum]
+29.2 +16.0 45 +32 +40 душно 1002.5 994.7
09 12.07 З 2 20 км 9/9 600 м
[Cb cap]
+23.0 +17.9 73 +28 +29 душно 1002.7 994.7 +29.4
12 12.07 ЮВ 1 10 км 9/9 600 м
[Cb cap]
+19.8 +18.5 92 +24 +24 комфорт 1004.1 996.0
15 12.07 штиль 0 10 км 8/3 600 м
[Cb cap Ac As]
+18.3 +17.8 97 +19 +19 1004.1 996.0
18 12.07 СВ 1 10 км 10/10 600 м
[Cb cap]
+19.4 +19.1 98 +23 +23 комфорт 1004.1 996.0
21 12.07 СВ 1 20 км 10/10 600 м
[]
+19.6 +19.1 97 +23 +23 комфорт 1004.5 996.4 +17.9
00 13.07 СВ 1 20 км 10/10 600 м
[Sc]
+20.5 +19.0 91 +26 +26 душно 1006.8 998.7
03 13.07 С 2 20 км 10/10 600 м
[Sc]
+21.8 +19.0 84 +27 +27 душно 1005.3 997.3
06 13.07 СВ 3 20 км 9 баллов +24.0 +19.3 75 +29 +30 душно 1005.3 997.3
09 13.07 СВ 2 20 км 8/8 600 м
[Cb calv]
+25.1 +19.0 69 +30 +30 душно 1003.1 995.2 +25.7
12 13.07 СЗ 1 10 км 6/0
[Ci ing]
+20.7 +19.0 90 +26 +26 душно 1004.3 996.2
15 13.07 СВ 1 10 км 8/3 600 м
[Sc Ci ing]
+20.0 +18.8 93 +24 +24 комфорт 1005.0 996.9
18 13.07 С 1 10 км 8/8 600 м
[Sc]
+17.6 +17.3 98 +19 +19 1005.5 997.3
21 13.07 В 1 20 км 10/10 600 м
[Sc]
+18.6 +18.3 98 +21 +21 комфорт 1006.1 998.0 +17.6
00 14.07 В 1 20 км 9 баллов +22.6 +17.7 74 +28 +29 душно 1006.7 998.7
03 14.07 В 1 20 км 9/1 600 м
[Cu hum Ac As]
+26.0 +16.2 55 +29 +32 душно 1006.7 998.7
06 14.07 В 2 20 км 8/3 600 м
[Cu hum Ci fib]
+27.4 +16.7 52 +31 +34 душно 1006.6 998.7
09 14.07 СВ 2 20 км 8/5 600 м
[Cu med, cong Ci sp]
+27.3 +16.0 50 +31 +31 душно 1005.2 997.3 +27.6
12 14.07 штиль 0 10 км 8/3 600 м
[Sc diur, vesp Ac As]
+20.9 +18.7 87 +25 +25 комфорт 1008.1 1000.0
15 14.07 штиль 0 10 км 10/10 600 м
[Sc]
+20.0 +17.8 87 +23 +23 комфорт 1009.4 1001.3
18 14.07 В 1 10 км 6 баллов +16.6 +15.6 94 +17 +17 1010.9 1002.7
21 14.07 штиль 0 20 км 9/9 600 м
[Sc]
+18.8 +15.9 83 +20 +20 1010.6 1002.4 +16.5
00 15.07 В 1 20 км 8/5 600 м
[Sc Ac trans]
+22.8 +14.9 61 +27 +31 душно 1012.1 1004.0
03 15.07 Ю 1 20 км 7 баллов +25.3 +15.9 56 +29 +35 душно 1012.0 1004.0
06 15.07 В 2 20 км 8/8 600 м
[Cb calv Ci ing]
+26.9 +16.5 53 +30 +34 душно 1010.7 1002.7
09 15.07 штиль 0 20 км 4/3 600 м
[Cb calv Ci ing]
+25.6 +19.7 70 +31 +32 очень
душно
1010.7 1002.7 +28.1
12 15.07 штиль 0 10 км 6/5 600 м
[Sc diur, vesp Ac trans]
+20.5 +19.2 92 +24 +24 комфорт 1012.1 1004.0
15 15.07 ЮЗ 1 10 км 6/6 600 м
[Sc]
+19.7 +19.0 96 +24 +24 комфорт 1013.5 1005.3
18 15.07 СВ 1 10 км 8/8 600 м
[Cb cap]
+20.0 +17.9 88 +24 +24 комфорт 1013.5 1005.3
21 15.07 В 1 20 км 8/8 600 м
[Sc]
+20.1 +17.9 87 +24 +25 комфорт 1012.8 1004.6 +19.0
00 16.07 Ю 2 20 км 9/6 600 м
[Cb cap Ac lent]
+23.4 +16.9 67 +29 +30 душно 1013.4 1005.3
03 16.07 Ю 1 20 км 9/5 600 м
[Cb cap Ac cast]
+25.9 +17.8 61 +30 +32 душно 1013.3 1005.3
06 16.07 Ю 2 20 км 7 баллов +27.2 +16.8 53 +31 +34 душно 1012.0 1004.0
09 16.07 ЮЗ 2 20 км 3/3 600 м
[Cu hum Ci fib]
+26.5 +17.8 59 +31 +32 душно 1010.7 1002.7 +27.6
12 16.07 штиль 0 10 км 7 баллов +19.6 +18.6 94 +22 +22 комфорт 1012.2 1004.0
15 16.07 штиль 0 10 км 4 балла +17.2 +16.9 98 +17 +17 1012.2 1004.0
18 16.07 штиль 0 10 км 7 баллов +16.1 +15.6 97 +16 +16 1012.3 1004.0
21 16.07 В 1 20 км 9/9 600 м
[Cb cap]
+18.0 +17.1 94 +19 +19 1009.9 1001.7 +15.5
00 17.07 Ю 1 20 км 9 баллов +23.4 +18.5 74 +30 +31 очень
душно
1010.7 1002.7
03 17.07 Ю 3 20 км 7 баллов +26.0 +17.4 59 +30 +34 душно 1009.3 1001.3

 

Местоположение метеостанции Георгиевка (Хабаровский край, Россия): широта 47.95 долгота 135.20 высота над уровнем моря 70 м.

В архиве по умолчанию представлена погода в Георгиевке за последнюю неделю. Архивные данные за месяц целиком и за предыдущие месяцы, начиная с января 2011 года, Вы можете получить, выбрав интересующий диапазон дат из раскрывающегося списка и нажав кнопку "Ввод!".


*Определитесь, кто Вы:
робот инопланетянин человек

Внимание! Время в таблицах - всемирное. Для получения местного времени необходимо прибавить поправку, которая равна 10 ч.

Смотрите также архив погоды в соседних городах и на ближайших метеорологических станциях:

Погода в Хоре (Хабаровский край, Россия) (21 км)
Погода в Оборе (Хабаровский край, Россия) (34 км)
Погода в Бичевой (Хабаровский край, Россия) (36 км)
Погода в Бычихе (Хабаровский край, Россия) (48 км)
Погода в Хабаровске Аэр. Большой (Хабаровский край, Россия) (56 км)
Погода в Хабаровске 21 км (Хабаровский край, Россия) (59 км)
Погода в Вяземском (Хабаровский край, Россия) (61 км)
Погода в Князе-Волконском (Хабаровский край, Россия) (62 км)
Погода в Хабаровске АМС (Хабаровский край, Россия) (62 км)
Погода в Хабаровске (Хабаровский край, Россия) (64 км)

Пояснения к столбцам:

Ветер - указаны скорость ветра в м/с - средняя за 10 мин, порывы в срок и между сроками (в фигурных скобках) и направление, откуда дует ветер: С - северный, СВ - северо-восточный, В - восточный, ЮВ - юго-восточный, Ю - южный, ЮЗ - юго-западный, З - западный, СЗ - северо-западный.
Видимость - горизонтальная дальность видимости в метрах или километрах. При видимости от 1 до 10 км при отсутствии осадков обычно наблюдается дымка, при ухудшении видимости до 1 км и менее - туман. В сухую погоду видимость может ухудшаться дымом, пылью или мглою.
Явления - указаны атмосферные явления, наблюдавшиеся в срок или в последний час перед сроком; фигурными скобками обозначены явления, наблюдавшиеся между сроками (за 1-3 часа до срока); квадратными скобками обозначены град или гололедные отложения с указанием их диаметра в мм.
Облачность - указаны через наклонную черту общая и нижняя облачность в баллах и высота нижней границы облаков в метрах; квадратными скобками обозначены формы облаков: Ci - перистые, Cs - перисто-слоистые, Cc - перисто-кучевые, Ac - высококучевые, As - высокослоистые, Sc - слоисто-кучевые, Ns - слоисто-дождевые, Cu - кучевые, Cb - кучево-дождевые. Подробнее классификацию облаков см. в Атласе облаков (PDF).
T - Температура воздуха - температура, измеренная на высоте 2 м над землей.
Td - Температура точки росы - температура, при понижении до которой содержащийся в воздухе водяной пар достигнет насыщения.
f - Относительная влажность воздуха - влажноcть воздуха, измеренная на высоте 2 м над землей.
Te - Эффективная температура - температура, которую ощущает одетый по сезону человек в тени. Характеристика душности погоды. При расчете учитывается влияние влажности воздуха и скорости ветра на теплоощущения человека.
Tes - Эффективная температура на солнце - температура, которую ощущает человек, с поправкой на солнечный нагрев. Характеристика знойности погоды. Зависит от высоты солнца над горизонтом, облачности и скорости ветра. Ночью, в пасмурную погоду, а также при ветре 12 м/с и более поправка равна нулю.
P - Атмосферное давление - приведенное к уровню моря атмосферное давление.
Po - Атмосферное давление - измеренное на уровне метеостанции атмосферное давление.
Tmin - Минимальная температура - минимум температуры воздуха на высоте 2 м над землей.
Tmax - Максимальная температура - максимум температуры воздуха на высоте 2 м над землей.
R - Количество осадков - Количество выпавших осадков за период времени, мм. При наведении курсора мыши на число - период времени, за который выпало указанное количество осадков.
R24 - Количество осадков - Количество выпавших осадков за 24 часа, мм.
S - Снежный покров - Высота снежного покрова, см. При наведении курсора мыши на число - состояние снежного покрова и степень покрытия местности в баллах.